User: anonymous   Login
Location: Unspecified
(0.0000°N, 0.0000°E)
Time: 04:21:48
(UTC+00:00)
Language:

CLOUDSAT - Orbit

View from above orbital plane
View from above orbital plane
View from above satellite
View from above satellite

Ground track
Ground track

The orbit data is extracted from the following two-line orbital elements,

1 29107U 06016A   15065.16694211  .00000539  00000-0  12991-3 0  9991
2 29107 098.2249 010.3678 0001613 095.1999 264.9394 14.57078543470982
Epoch (UTC): 06 March 2015 04:00:23
Eccentricity: 0.0001613
inclination: 98.2249°
perigee height: 701 km
apogee height: 704 km
right ascension of ascending node: 10.3678°
argument of perigee: 95.1999°
revolutions per day: 14.57078543
mean anomaly at epoch: 264.9394°
orbit number at epoch: 47098

The dashed part of the orbit path shows where the satellite is in the earth's shadow,  

DLR